Reno, NV

9:14 PM PST on February 13, 2016 (GMT -0800)
Reno-Tahoe International

Weather History for KRNO - September, 2013

Change the Weather History Date:

Sunday, September 8, 2013

  Actual Average Record
Temperature  
Mean Temperature 73 °F 68 °F  
Max Temperature 92 °F 85 °F 96 °F (1944)
Min Temperature 54 °F 51 °F 31 °F (1966)
Degree Days  
Heating Degree Days 0 1  
Month to date heating degree days 0 8  
Since 1 July heating degree days 0 18  
Cooling Degree Days 8 4  
Month to date cooling degree days 76 37  
Year to date cooling degree days 1112 783  
Growing Degree Days 22 (Base 50)    
Moisture  
Dew Point 34 °F    
Average Humidity 31    
Maximum Humidity 51    
Minimum Humidity 11    
Precipitation  
Precipitation 0.00 in 0.01 in 0.09 in (1980)
Month to date precipitation T 0.06  
Year to date precipitation 3.04 4.75  
Snow  
Snow 0.00 in 0.00 in 0.00 in ()
Month to date snowfall 0.0 0.0  
Since 1 July snowfall T 0.0  
Since 1 September snowfall 0.0 0.0  
Snow Depth 0.00 in    
Sea Level Pressure  
Sea Level Pressure 29.89 in    
Wind  
Wind Speed 4 mph (WNW)    
Max Wind Speed 23 mph    
Max Gust Speed 26 mph    
Visibility 10 miles    
Events      
T = Trace of Precipitation, MM = Missing Value Source: NWS Daily Summary

Daily Weather History Graph

Daily Weather History Graph

Search for Another Location

Airport or City:

Trip Planner

Search our weather history database for the weather conditions in past years. The results will help you decide how hot, cold, wet, or windy it might be!

Date:

Astronomy

Sep. 08, 2013 Rise Set
Actual Time 6:34 AM PDT 7:18 PM PDT
Civil Twilight 6:06 AM PDT 7:45 PM PDT
Nautical Twilight 5:34 AM PDT 8:17 PM PDT
Astronomical Twilight 5:01 AM PDT 8:50 PM PDT
Moon 9:55 AM PDT (9/8) 8:58 PM PDT (9/8)
Length of Visible Light 13h 38m
Length of Day
12h 44m
Waxing Crescent, 12% of the Moon is Illuminated
Sep 8
Waxing Crescent
Sep 12
First Quarter
Sep 19
Full
Sep 26
Last Quarter
Oct 4
New

Hourly Weather History & Observations

Time (PDT) Temp. Dew Point Humidity Pressure Visibility Wind Dir Wind Speed Gust Speed Precip Events Conditions
12:55 AM 66.0 °F 39.0 °F 37% 29.93 in 10.0 mi West 4.6 mph - N/A   Clear
1:55 AM 64.9 °F 37.0 °F 36% 29.93 in 10.0 mi SW 3.5 mph - N/A   Clear
2:55 AM 60.1 °F 37.0 °F 42% 29.94 in 10.0 mi South 3.5 mph - N/A   Clear
3:55 AM 60.1 °F 37.9 °F 44% 29.94 in 10.0 mi Calm Calm - N/A   Clear
4:55 AM 59.0 °F 36.0 °F 42% 29.93 in 10.0 mi WNW 3.5 mph - N/A   Clear
5:55 AM 57.9 °F 36.0 °F 44% 29.95 in 10.0 mi Calm Calm - N/A   Clear
6:55 AM 55.0 °F 37.9 °F 53% 29.98 in 10.0 mi SSE 3.5 mph - N/A   Clear
7:55 AM 59.0 °F 37.9 °F 46% 29.98 in 10.0 mi Calm Calm - N/A   Clear
8:55 AM 63.0 °F 39.0 °F 41% 29.97 in 10.0 mi Calm Calm - N/A   Clear
9:55 AM 68.0 °F 37.0 °F 32% 29.95 in 10.0 mi Calm Calm - N/A   Clear
10:55 AM 75.0 °F 37.0 °F 25% 29.93 in 10.0 mi Calm Calm - N/A   Clear
11:55 AM 81.0 °F 35.1 °F 19% 29.89 in 10.0 mi Calm Calm - N/A   Clear
12:55 PM 84.0 °F 30.9 °F 15% 29.88 in 10.0 mi Calm Calm - N/A   Partly Cloudy
1:55 PM 86.0 °F 32.0 °F 14% 29.85 in 10.0 mi SE 8.1 mph - N/A   Partly Cloudy
2:55 PM 89.1 °F 30.9 °F 12% 29.82 in 10.0 mi NNE 6.9 mph - N/A   Partly Cloudy
3:55 PM 89.1 °F 30.0 °F 12% 29.81 in 10.0 mi NE 4.6 mph - N/A   Partly Cloudy
4:55 PM 90.0 °F 28.0 °F 11% 29.79 in 10.0 mi North 18.4 mph 24.2 mph N/A   Partly Cloudy
5:55 PM 88.0 °F 27.0 °F 11% 29.80 in 10.0 mi North 17.3 mph - N/A   Partly Cloudy
6:55 PM 84.9 °F 27.0 °F 12% 29.82 in 10.0 mi NNW 8.1 mph - N/A   Partly Cloudy
7:55 PM 81.0 °F 32.0 °F 17% 29.84 in 10.0 mi WNW 11.5 mph - N/A   Clear
8:55 PM 79.0 °F 32.0 °F 18% 29.85 in 10.0 mi WNW 8.1 mph - N/A   Clear
9:55 PM 73.0 °F 33.1 °F 23% 29.87 in 10.0 mi SSE 3.5 mph - N/A   Clear
10:55 PM 71.1 °F 32.0 °F 24% 29.88 in 10.0 mi Calm Calm - N/A   Clear
11:55 PM 70.0 °F 32.0 °F 25% 29.86 in 10.0 mi Calm Calm - N/A   Clear